This is the latest recevied weather packets stored in our database for station/object K4AVM-13. If no packets are shown the sender has not sent any weather packets the latest 10 day(s).
| Time | Temp. | Humidity | Pressure | Rain* | Wind** | Luminosity | Snow |
|---|---|---|---|---|---|---|---|
| 1777857225 | 8.89° C | 62% | 1017.5 hPa | 0 mm | - | 0 W/m² | - |
| 1777856921 | 9.44° C | 60% | 1017.5 hPa | 0 mm | - | 0 W/m² | - |
| 1777856617 | 9.44° C | 60% | 1017.6 hPa | 0 mm | - | 0 W/m² | - |
| 1777856314 | 10° C | 57% | 1017.6 hPa | 0 mm | - | 0 W/m² | - |
| 1777856010 | 10° C | 58% | 1017.5 hPa | 0 mm | - | 0 W/m² | - |
| 1777855708 | 10° C | 56% | 1017.6 hPa | 0 mm | - | 0 W/m² | - |
| 1777855406 | 10.56° C | 54% | 1017.4 hPa | 0 mm | - | 0 W/m² | - |
| 1777855102 | 10.56° C | 52% | 1017.2 hPa | 0 mm | - | 0 W/m² | - |
| 1777854799 | 11.11° C | 51% | 1017.2 hPa | 0 mm | - | 0 W/m² | - |
| 1777854496 | 11.11° C | 49% | 1017.3 hPa | 0 mm | - | 0 W/m² | - |
| 1777854192 | 11.67° C | 48% | 1017.2 hPa | 0 mm | - | 0 W/m² | - |
| 1777853890 | 11.67° C | 47% | 1017.1 hPa | 0 mm | - | 0 W/m² | - |
| 1777853587 | 12.22° C | 46% | 1017.3 hPa | 0 mm | - | 1 W/m² | - |
| 1777853284 | 12.22° C | 45% | 1017.1 hPa | 0 mm | - | 1 W/m² | - |
| 1777852981 | 12.78° C | 44% | 1016.9 hPa | 0 mm | - | 2 W/m² | - |
| 1777852679 | 13.33° C | 42% | 1016.9 hPa | 0 mm | - | 4 W/m² | - |
| 1777852376 | 13.89° C | 41% | 1016.9 hPa | 0 mm | - | 6 W/m² | - |
| 1777852074 | 13.89° C | 39% | 1016.8 hPa | 0 mm | - | 8 W/m² | - |
| 1777851771 | 14.44° C | 41% | 1016.9 hPa | 0 mm | - | 11 W/m² | - |
| 1777851469 | 14.44° C | 39% | 1016.6 hPa | 0 mm | - | 13 W/m² | - |
| 1777851164 | 15° C | 38% | 1016.8 hPa | 0 mm | - | 16 W/m² | - |
| 1777850861 | 15° C | 37% | 1016.6 hPa | 0 mm | - | 17 W/m² | - |
| 1777850558 | 15° C | 36% | 1016.8 hPa | 0 mm | - | 20 W/m² | - |
| 1777850256 | 15.56° C | 36% | 1016.7 hPa | 0 mm | - | 21 W/m² | - |
| 1777849953 | 15.56° C | 34% | 1016.7 hPa | 0 mm | - | 23 W/m² | - |
* Rain latest hour (hover to see other rain measurements)
** Current wind speed in m/s (hover to see current wind gust speed)